EW4699 Weather Reports


time (UTC)temp
C
wind
direction
speed
KPH
gust
KPH
rain 1hr
cm
rain 24hr
cm
rain mn
cm
humidity
%
barometer
mb
20260503004504 6 355 4.8 12.9 0.00 0.23 0.00 79 1009.7
20260503003103 6 325 0.0 16.1 0.00 0.23 0.00 81 1009.5
20260503001505 6 22 4.8 14.5 0.00 0.23 0.00 84 1009.5
20260503000107 6 42 0.0 22.5 0.00 0.23 0.00 90 1009.6
20260502234502 6 11 1.6 9.7 0.00 0.23 0.00 92 1009.5
20260502233102 6 5 0.0 3.2 0.00 0.23 0.00 92 1009.3
20260502231503 6 49 0.0 3.2 0.00 0.23 0.00 92 1009.2
20260502230105 6 46 1.6 6.4 0.00 0.23 0.00 92 1009.2
20260502224650 6 332 0.0 0.0 0.00 0.23 0.00 92 1008.8
20260502223049 6 332 0.0 0.0 0.00 0.23 0.00 92 1008.7
20260502221649 6 332 0.0 0.0 0.00 0.23 0.00 92 1008.6
20260502220049 6 332 0.0 0.0 0.00 0.23 0.00 92 1008.7
20260502214649 6 332 0.0 0.0 0.00 0.23 0.23 92 1008.7
20260502213050 6 332 0.0 0.0 0.00 0.23 0.23 92 1008.7
20260502211650 7 332 0.0 0.0 0.00 0.23 0.23 91 1008.7
20260502210056 7 332 0.0 0.0 0.00 0.23 0.23 91 1008.6
20260502204650 7 332 0.0 0.0 0.00 0.23 0.23 91 1008.7
20260502203053 8 332 0.0 0.0 0.00 0.23 0.23 91 1008.6
20260502201651 8 332 0.0 0.0 0.00 0.23 0.23 91 1008.8
20260502200052 8 332 0.0 0.0 0.00 0.23 0.23 90 1008.7
20260502194649 8 332 0.0 0.0 0.00 0.23 0.23 90 1008.8
20260502193054 8 332 0.0 0.0 0.00 0.23 0.23 89 1008.5
20260502191650 8 332 0.0 0.0 0.00 0.23 0.23 89 1008.5
20260502190053 8 332 0.0 0.0 0.00 0.23 0.23 89 1008.6
20260502184650 8 332 0.0 0.0 0.00 0.23 0.23 89 1008.7
20260502183054 9 332 0.0 3.2 0.00 0.23 0.23 89 1008.6
20260502181649 9 236 0.0 4.8 0.00 0.23 0.23 88 1008.5
20260502163053 10 30 0.0 0.0 0.18 0.20 0.20 79 1009.4
20260502161652 10 330 0.0 0.0 0.15 0.15 0.15 75 1009.5
20260502151650 11 355 0.0 6.4 0.00 0.03 0.03 69 1009.2
20260502123059 15 184 3.2 14.5 0.00 0.00 0.00 39 1009.9
20260502121651 15 234 3.2 11.3 0.00 0.00 0.00 39 1010.0
20260502114650 15 215 6.4 12.9 0.00 0.00 0.00 39 1010.0
20260502113053 15 216 1.6 12.9 0.00 0.00 0.00 39 1010.0
20260502111651 15 216 6.4 19.3 0.00 0.00 0.00 38 1010.2
20260502110053 16 229 4.8 22.5 0.00 0.00 0.00 38 1010.2
20260502104650 16 261 8.0 20.9 0.00 0.00 0.00 37 1010.3
20260502103103 17 192 8.0 17.7 0.00 0.00 0.00 35 1010.1
20260502101651 18 225 3.2 19.3 0.00 0.00 0.00 34 1010.1
20260502100118 17 177 6.4 17.7 0.00 0.00 0.00 36 1010.1
20260502090110 16 161 4.8 17.7 0.00 0.00 0.00 39 1010.9
20260502070052 12 242 4.8 11.3 0.00 0.00 0.00 56 1012.1
20260502064651 11 186 1.6 11.3 0.00 0.00 0.00 60 1012.3
20260502063052 11 96 0.0 3.2 0.00 0.00 0.00 63 1012.6
20260502061654 10 30 0.0 3.2 0.00 0.00 0.00 71 1012.7
20260502060051 10 20 0.0 3.2 0.00 0.00 0.00 69 1012.9
20260502054652 8 18 0.0 0.0 0.00 0.00 0.00 74 1013.0
20260502053101 8 18 0.0 4.8 0.00 0.00 0.00 75 1013.0
20260502051652 7 219 0.0 4.8 0.00 0.00 0.00 77 1013.0
20260502050051 6 227 1.6 9.7 0.00 0.00 0.00 82 1013.0
20260502044652 6 232 4.8 12.9 0.00 0.00 0.00 83 1013.1
20260502043100 5 235 1.6 6.4 0.00 0.00 0.00 85 1013.2
20260502041653 5 244 3.2 11.3 0.00 0.00 0.00 86 1013.3
20260502040056 5 238 3.2 8.0 0.00 0.00 0.00 86 1013.4
20260502034651 5 248 4.8 9.7 0.00 0.00 0.00 86 1013.6
20260502033052 5 252 1.6 6.4 0.00 0.00 0.00 88 1013.7
20260502031653 3 209 1.6 6.4 0.00 0.00 0.00 89 1013.9
20260502030059 3 230 0.0 1.6 0.00 0.00 0.00 88 1014.1
20260502024652 3 230 0.0 0.0 0.00 0.00 0.00 88 1014.3
20260502023052 3 230 0.0 1.6 0.00 0.00 0.00 86 1014.6
20260502021651 4 230 0.0 0.0 0.00 0.00 0.00 85 1014.7
20260502020051 5 230 0.0 0.0 0.00 0.00 0.00 84 1014.7
20260502014652 5 230 0.0 0.0 0.00 0.00 0.00 84 1014.8
20260502013052 5 230 0.0 0.0 0.00 0.00 0.00 83 1015.0
20260502011654 5 230 0.0 0.0 0.00 0.00 0.00 82 1015.1
20260502010106 6 230 0.0 0.0 0.00 0.00 0.00 81 1015.2